EW8665 Weather Reports


time (UTC)temp
C
wind
direction
speed
KPH
gust
KPH
rain 1hr
cm
rain 24hr
cm
rain mn
cm
humidity
%
barometer
mb
20260503015505 17 265 3.2 6.4 0.00 0.00 0.00 63 1015.5
20260503015004 17 263 6.4 12.9 0.00 0.00 0.00 53 1015.6
20260503014505 17 257 6.4 12.9 0.00 0.00 0.00 47 1015.8
20260503013505 18 258 6.4 14.5 0.00 0.00 0.00 44 1015.5
20260503013005 18 255 8.0 16.1 0.00 0.00 0.00 43 1015.7
20260503012505 18 253 6.4 16.1 0.00 0.00 0.00 43 1015.8
20260503012005 17 249 6.4 14.5 0.00 0.00 0.00 44 1015.9
20260503011505 17 247 4.8 11.3 0.00 0.00 0.00 45 1015.9
20260503011005 17 247 4.8 11.3 0.00 0.00 0.00 45 1016.0
20260503010504 17 255 3.2 8.0 0.00 0.00 0.00 45 1016.0
20260503010004 17 252 3.2 11.3 0.00 0.00 0.00 47 1016.1
20260503005505 17 252 3.2 11.3 0.00 0.00 0.00 48 1016.2
20260503005005 17 254 4.8 12.9 0.00 0.00 0.00 48 1016.2
20260503004004 15 353 4.8 12.9 0.00 0.00 0.00 56 1016.1
20260503003505 15 96 3.2 6.4 0.00 0.00 0.00 58 1016.1
20260503003008 15 85 3.2 6.4 0.00 0.00 0.00 60 1016.1
20260503002505 15 97 3.2 4.8 0.00 0.00 0.00 61 1016.2
20260503002005 15 93 3.2 6.4 0.00 0.00 0.00 64 1016.5
20260503001506 15 80 1.6 6.4 0.00 0.00 0.00 65 1016.3
20260503001005 15 80 3.2 4.8 0.00 0.00 0.00 65 1016.5
20260503000505 15 66 1.6 4.8 0.00 0.00 0.00 64 1016.4
20260503000005 15 54 3.2 4.8 0.00 0.00 0.00 63 1016.6
20260502235505 15 43 3.2 9.7 0.00 0.00 0.00 62 1016.5
20260502235004 15 37 3.2 9.7 0.00 0.00 0.00 63 1016.6
20260502234004 15 44 3.2 6.4 0.00 0.00 0.00 64 1016.5
20260502233504 15 37 4.8 11.3 0.00 0.00 0.00 64 1016.6
20260502233004 15 41 4.8 11.3 0.00 0.00 0.00 65 1016.4
20260502232505 15 44 3.2 8.0 0.00 0.00 0.00 65 1016.7
20260502232005 15 49 3.2 6.4 0.00 0.00 0.00 65 1016.6
20260502231505 15 43 4.8 9.7 0.00 0.00 0.00 65 1016.6
20260502231005 15 49 4.8 9.7 0.00 0.00 0.00 65 1016.6
20260502230005 16 69 4.8 9.7 0.00 0.00 0.00 66 1016.7
20260502225504 16 65 4.8 9.7 0.00 0.00 0.00 66 1016.7
20260502225005 16 65 3.2 8.0 0.00 0.00 0.00 66 1016.7
20260502224505 16 79 3.2 6.4 0.00 0.00 0.00 67 1016.7
20260502224005 16 71 4.8 8.0 0.00 0.00 0.00 67 1016.8
20260502223505 16 63 4.8 8.0 0.00 0.00 0.00 67 1016.8
20260502223005 16 60 4.8 8.0 0.00 0.00 0.00 67 1016.8
20260502222506 16 63 3.2 6.4 0.00 0.00 0.00 68 1016.7
20260502222005 16 58 3.2 6.4 0.00 0.00 0.00 68 1016.8
20260502221507 16 61 4.8 8.0 0.00 0.00 0.00 68 1016.9
20260502221004 16 61 4.8 8.0 0.00 0.00 0.00 68 1017.0
20260502220005 16 75 3.2 6.4 0.00 0.00 0.00 68 1017.0
20260502215505 16 72 3.2 8.0 0.00 0.00 0.00 68 1017.0
20260502215004 16 77 3.2 8.0 0.00 0.00 0.00 68 1016.9
20260502214505 16 68 3.2 4.8 0.00 0.00 0.00 68 1016.8
20260502214004 16 62 3.2 4.8 0.00 0.00 0.00 68 1016.9
20260502213004 16 62 3.2 6.4 0.00 0.00 0.00 67 1017.0
20260502212505 16 66 4.8 8.0 0.00 0.00 0.00 67 1016.7
20260502212007 16 61 4.8 8.0 0.00 0.00 0.00 67 1016.8
20260502211505 16 58 3.2 8.0 0.00 0.00 0.00 67 1016.8
20260502211007 16 62 3.2 9.7 0.00 0.00 0.00 67 1016.8
20260502210505 16 60 4.8 9.7 0.00 0.00 0.00 67 1016.9
20260502210004 17 62 4.8 9.7 0.00 0.00 0.00 67 1016.8
20260502205505 17 64 3.2 8.0 0.00 0.00 0.00 66 1016.8
20260502205005 17 63 3.2 8.0 0.00 0.00 0.00 66 1016.8
20260502204505 17 65 3.2 8.0 0.00 0.00 0.00 67 1016.6
20260502203505 17 61 3.2 8.0 0.00 0.00 0.00 67 1016.9
20260502203004 17 53 4.8 8.0 0.00 0.00 0.00 67 1016.8
20260502202005 17 49 3.2 8.0 0.00 0.00 0.00 63 1016.7
20260502201504 17 49 1.6 4.8 0.00 0.00 0.00 64 1016.9
20260502201005 17 53 3.2 6.4 0.00 0.00 0.00 63 1016.7
20260502200005 17 58 3.2 6.4 0.00 0.00 0.00 63 1016.8
20260502195504 17 62 3.2 6.4 0.00 0.00 0.00 63 1016.6
20260502195005 17 60 3.2 8.0 0.00 0.00 0.00 62 1016.7
20260502194504 17 57 3.2 8.0 0.00 0.00 0.00 62 1016.6
20260502194005 18 55 4.8 6.4 0.00 0.00 0.00 62 1016.5
20260502193504 18 49 3.2 6.4 0.00 0.00 0.00 61 1016.7
20260502193005 18 47 3.2 4.8 0.00 0.00 0.00 61 1016.6
20260502192504 18 39 3.2 6.4 0.00 0.00 0.00 61 1016.5
20260502192005 18 37 3.2 6.4 0.00 0.00 0.00 60 1016.4
20260502191504 18 38 3.2 6.4 0.00 0.00 0.00 60 1016.4
20260502191005 18 36 4.8 8.0 0.00 0.00 0.00 60 1016.5
20260502190505 18 41 4.8 8.0 0.00 0.00 0.00 60 1016.3
20260502190005 18 35 3.2 6.4 0.00 0.00 0.00 59 1016.7
20260502185504 19 43 3.2 4.8 0.00 0.00 0.00 59 1016.5
20260502185004 19 44 3.2 6.4 0.00 0.00 0.00 59 1016.5
20260502184007 20 50 4.8 9.7 0.00 0.00 0.00 58 1016.3
20260502183504 20 49 4.8 8.0 0.00 0.00 0.00 58 1016.2
20260502182505 20 52 4.8 8.0 0.00 0.00 0.00 57 1016.2
20260502182005 20 49 4.8 8.0 0.00 0.00 0.00 57 1016.4
20260502181505 20 44 4.8 9.7 0.00 0.00 0.00 56 1016.2
20260502181005 21 33 4.8 9.7 0.00 0.00 0.00 56 1016.3
20260502180505 21 26 4.8 6.4 0.00 0.00 0.00 56 1016.3
20260502170504 23 6 3.2 8.0 0.00 0.00 0.00 43 1016.1
20260502164004 24 1 3.2 4.8 0.00 0.00 0.00 40 1016.2
20260502163504 24 356 3.2 8.0 0.00 0.00 0.00 40 1016.3
20260502163004 24 339 3.2 8.0 0.00 0.00 0.00 39 1016.5
20260502162505 24 335 4.8 8.0 0.00 0.00 0.00 39 1016.3
20260502162005 25 341 3.2 6.4 0.00 0.00 0.00 40 1016.7
20260502161505 25 344 3.2 8.0 0.00 0.00 0.00 39 1016.7
20260502161004 25 308 4.8 9.7 0.00 0.00 0.00 37 1016.7
20260502160504 25 283 4.8 9.7 0.00 0.00 0.00 36 1016.7
20260502152007 25 288 8.0 12.9 0.00 0.00 0.00 35 1016.9
20260502151504 26 278 8.0 16.1 0.00 0.00 0.00 35 1017.2
20260502151007 26 272 8.0 16.1 0.00 0.00 0.00 35 1017.2
20260502150504 26 265 8.0 16.1 0.00 0.00 0.00 35 1017.2
20260502123504 24 274 8.0 19.3 0.00 0.00 0.00 37 1019.3
20260502123004 25 281 6.4 14.5 0.00 0.00 0.00 38 1019.2
20260502122004 24 269 8.0 17.7 0.00 0.00 0.00 38 1019.3
20260502121005 24 252 9.7 20.9 0.00 0.00 0.00 37 1019.6
20260502120508 24 236 9.7 17.7 0.00 0.00 0.00 38 1019.5
20260502115504 23 223 9.7 20.9 0.00 0.00 0.00 39 1019.9
20260502115004 23 220 11.3 20.9 0.00 0.00 0.00 37 1019.7
20260502114005 23 225 9.7 16.1 0.00 0.00 0.00 38 1019.9
20260502113504 23 232 8.0 17.7 0.00 0.00 0.00 39 1020.0
20260502113004 23 232 8.0 17.7 0.00 0.00 0.00 39 1020.1
20260502112504 23 238 9.7 16.1 0.00 0.00 0.00 39 1020.3
20260502112005 23 236 9.7 16.1 0.00 0.00 0.00 40 1020.2
20260502111505 23 254 6.4 14.5 0.00 0.00 0.00 39 1020.4
20260502111005 23 270 4.8 11.3 0.00 0.00 0.00 41 1020.4
20260502110504 23 277 6.4 14.5 0.00 0.00 0.00 41 1020.5
20260502110005 23 276 6.4 14.5 0.00 0.00 0.00 41 1020.5
20260502105505 23 275 6.4 12.9 0.00 0.00 0.00 43 1020.6
20260502105004 22 278 8.0 16.1 0.00 0.00 0.00 43 1020.7
20260502104504 22 260 8.0 16.1 0.00 0.00 0.00 43 1020.8
20260502104004 22 252 9.7 16.1 0.00 0.00 0.00 42 1020.8
20260502103504 22 248 8.0 16.1 0.00 0.00 0.00 43 1020.9
20260502103005 22 243 6.4 12.9 0.00 0.00 0.00 43 1020.9
20260502102505 22 247 8.0 12.9 0.00 0.00 0.00 43 1020.9
20260502102004 22 247 6.4 12.9 0.00 0.00 0.00 45 1020.9
20260502101004 22 248 4.8 12.9 0.00 0.00 0.00 47 1021.3
20260502100505 22 251 6.4 12.9 0.00 0.00 0.00 47 1021.2
20260502091504 21 267 6.4 11.3 0.00 0.00 0.00 46 1021.7
20260502091005 20 259 6.4 19.3 0.00 0.00 0.00 46 1021.8
20260502090504 20 246 9.7 19.3 0.00 0.00 0.00 46 1021.8
20260502071504 18 237 6.4 14.5 0.00 0.00 0.00 50 1022.0
20260502071004 18 229 3.2 9.7 0.00 0.00 0.00 53 1022.0
20260502070005 18 236 4.8 12.9 0.00 0.00 0.00 54 1021.9
20260502065504 17 227 3.2 6.4 0.00 0.00 0.00 56 1021.9
20260502065004 17 233 3.2 4.8 0.00 0.00 0.00 57 1022.0
20260502064504 17 228 3.2 6.4 0.00 0.00 0.00 62 1021.9
20260502064007 16 205 3.2 6.4 0.00 0.00 0.00 65 1022.1
20260502063504 16 109 3.2 6.4 0.00 0.00 0.00 66 1022.0
20260502063006 15 77 1.6 4.8 0.00 0.00 0.00 68 1021.9
20260502062504 15 78 3.2 4.8 0.00 0.00 0.00 68 1021.8
20260502062004 15 79 1.6 4.8 0.00 0.00 0.00 68 1021.9
20260502061504 15 73 1.6 4.8 0.00 0.00 0.00 68 1021.7
20260502061005 14 68 3.2 4.8 0.00 0.00 0.00 67 1021.9
20260502060504 14 67 1.6 4.8 0.00 0.00 0.00 67 1021.9
20260502055504 13 50 3.2 8.0 0.00 0.00 0.00 65 1021.7
20260502055004 13 47 4.8 9.7 0.00 0.00 0.00 65 1021.9
20260502054504 13 52 4.8 9.7 0.00 0.00 0.00 65 1021.8
20260502054005 12 60 4.8 8.0 0.00 0.00 0.00 66 1021.7
20260502053504 12 64 3.2 8.0 0.00 0.00 0.00 69 1021.6
20260502053004 12 70 3.2 8.0 0.00 0.00 0.00 70 1021.8
20260502052004 11 76 3.2 6.4 0.00 0.00 0.00 69 1021.8
20260502051504 11 81 3.2 6.4 0.00 0.00 0.00 70 1021.8
20260502051004 11 79 3.2 6.4 0.00 0.00 0.00 70 1021.7
20260502050504 11 79 3.2 6.4 0.00 0.00 0.00 71 1021.6
20260502050005 11 79 3.2 8.0 0.00 0.00 0.00 71 1021.6
20260502045507 10 72 3.2 8.0 0.00 0.00 0.00 72 1021.5
20260502044504 10 80 4.8 8.0 0.00 0.00 0.00 73 1021.5
20260502044004 10 84 4.8 8.0 0.00 0.00 0.00 72 1021.5
20260502043504 10 80 3.2 6.4 0.00 0.00 0.00 72 1021.5
20260502043004 10 84 3.2 6.4 0.00 0.00 0.00 72 1021.7
20260502042504 10 92 3.2 6.4 0.00 0.00 0.00 72 1021.5
20260502042005 10 91 3.2 6.4 0.00 0.00 0.00 72 1021.5
20260502041504 10 94 1.6 4.8 0.00 0.00 0.00 73 1021.8
20260502041004 10 90 1.6 3.2 0.00 0.00 0.00 72 1021.5
20260502040504 10 95 1.6 3.2 0.00 0.00 0.00 72 1021.6
20260502040004 10 93 1.6 3.2 0.00 0.00 0.00 72 1021.7
20260502035504 10 90 3.2 4.8 0.00 0.00 0.00 71 1021.4
20260502035005 10 86 3.2 4.8 0.00 0.00 0.00 71 1021.6
20260502034504 10 87 3.2 6.4 0.00 0.00 0.00 70 1021.6
20260502034007 10 85 3.2 6.4 0.00 0.00 0.00 69 1021.5
20260502033505 10 83 4.8 6.4 0.00 0.00 0.00 69 1021.7
20260502033004 10 79 4.8 6.4 0.00 0.00 0.00 68 1021.7
20260502032504 10 36 1.6 4.8 0.00 0.00 0.00 68 1021.8
20260502032004 10 259 1.6 4.8 0.00 0.00 0.00 67 1021.9
20260502031504 10 250 1.6 4.8 0.00 0.00 0.00 67 1021.9
20260502031004 10 249 1.6 4.8 0.00 0.00 0.00 66 1021.8
20260502030504 11 243 3.2 6.4 0.00 0.00 0.00 66 1021.8
20260502030004 11 100 4.8 9.7 0.00 0.00 0.00 66 1021.7
20260502025504 11 106 4.8 9.7 0.00 0.00 0.00 65 1021.6
20260502025004 11 90 3.2 6.4 0.00 0.00 0.00 66 1021.6
20260502024504 11 86 3.2 6.4 0.00 0.00 0.00 65 1021.3
20260502023505 11 96 3.2 6.4 0.00 0.00 0.00 65 1021.5
20260502023004 11 101 3.2 6.4 0.00 0.00 0.00 64 1021.5
20260502022504 11 100 4.8 8.0 0.00 0.00 0.00 63 1021.6
20260502022004 11 105 4.8 8.0 0.00 0.00 0.00 64 1021.5
20260502021507 11 108 3.2 8.0 0.00 0.00 0.00 64 1021.4
20260502021004 11 104 3.2 6.4 0.00 0.00 0.00 64 1021.8
20260502020005 11 88 3.2 6.4 0.00 0.00 0.00 64 1021.6